AXIS43 EGUN-LGSA

Flight info

Callsign AXIS43
Flight time N/A
Altitude 41000
Route CLN L608 SUMUM/N0317F190 L608 SASKI L179 NIK/N0460F410 M624 DIK M150 GEBDA/N0464F430 Y173 PABLA/N0463F410 Z721 UTABA L607 ELMEM N606 OTRES T307 DIRAB DCT ROTAR DCT MADOS DCT EBELA DCT PITAS UN732 KRK UA14 ARA UL612 TRL UJ65 SOKRI
Aircraft GLF5/M-SBDE2E3FGHIJ3J4J5P2RWXY/LB1D1

Departure

Time 2026-05-08 21:35
Airport RAF Mildenhall (EGUN)

Arrival

Time N/A
Airport Chania International Airport (LGSA)
Time Latitude Longitude Altitude Speed Heading
2026-05-08 21:22 52.36776 0.47780 30 ft 0 kts 191°
2026-05-08 21:32 52.36771 0.47778 30 ft 2 kts 191°
2026-05-08 21:32 52.36737 0.47737 30 ft 10 kts 248°
2026-05-08 21:32 52.36731 0.47600 30 ft 12 kts 222°
2026-05-08 21:33 52.36652 0.47531 30 ft 14 kts 208°
2026-05-08 21:33 52.36557 0.47425 30 ft 17 kts 243°
2026-05-08 21:33 52.36571 0.47267 29 ft 18 kts 282°
2026-05-08 21:33 52.36588 0.47059 29 ft 18 kts 257°
2026-05-08 21:34 52.36557 0.46856 28 ft 18 kts 254°
2026-05-08 21:34 52.36478 0.46743 28 ft 12 kts 149°
2026-05-08 21:34 52.36461 0.46795 28 ft 0 kts 101°
2026-05-08 21:34 52.36432 0.46991 29 ft 53 kts 103°
2026-05-08 21:35 52.36286 0.48005 31 ft 125 kts 103°
2026-05-08 21:35 52.36063 0.49612 387 ft 153 kts 103°
2026-05-08 21:35 52.35824 0.51373 1111 ft 173 kts 103°
2026-05-08 21:35 52.35533 0.53487 1732 ft 209 kts 103°
2026-05-08 21:36 52.35029 0.55806 2607 ft 227 kts 126°
2026-05-08 21:36 52.33896 0.57676 3563 ft 244 kts 137°
2026-05-08 21:36 52.32571 0.59461 4763 ft 259 kts 140°
2026-05-08 21:36 52.31137 0.61275 6048 ft 269 kts 141°
2026-05-08 21:37 52.29630 0.63116 7398 ft 276 kts 142°
2026-05-08 21:37 52.28085 0.64960 8756 ft 282 kts 142°
2026-05-08 21:37 52.26500 0.66831 10075 ft 288 kts 144°
2026-05-08 21:37 52.24882 0.68725 11371 ft 293 kts 144°
2026-05-08 21:38 52.23230 0.70655 12677 ft 297 kts 146°
2026-05-08 21:38 52.21567 0.72587 14034 ft 300 kts 146°
2026-05-08 21:38 52.19852 0.74577 15300 ft 306 kts 146°
2026-05-08 21:38 52.18109 0.76594 16549 ft 313 kts 146°
2026-05-08 21:39 52.16354 0.78625 17785 ft 318 kts 147°
2026-05-08 21:39 52.14534 0.80728 18989 ft 325 kts 147°
2026-05-08 21:39 52.12685 0.82862 20102 ft 333 kts 146°
2026-05-08 21:39 52.10777 0.85065 21225 ft 341 kts 147°
2026-05-08 21:40 52.08818 0.87321 22298 ft 349 kts 146°
2026-05-08 21:40 52.06833 0.89606 23385 ft 356 kts 147°
2026-05-08 21:40 52.04771 0.91979 24471 ft 364 kts 147°
2026-05-08 21:41 52.00538 0.96840 26594 ft 379 kts 147°
2026-05-08 21:41 51.98376 0.99315 27567 ft 387 kts 147°
2026-05-08 21:41 51.96162 1.01849 28552 ft 394 kts 147°
2026-05-08 21:41 51.93869 1.04469 29452 ft 403 kts 147°
2026-05-08 21:42 51.91542 1.07126 30332 ft 411 kts 147°
2026-05-08 21:42 51.89195 1.09803 31157 ft 418 kts 147°
2026-05-08 21:42 51.86781 1.12562 32128 ft 419 kts 144°
2026-05-08 21:42 51.84751 1.16081 32932 ft 424 kts 121°
2026-05-08 21:43 51.83604 1.20400 33789 ft 425 kts 108°
2026-05-08 21:43 51.82645 1.24919 34635 ft 425 kts 108°
2026-05-08 21:43 51.81685 1.29398 35487 ft 422 kts 108°
2026-05-08 21:43 51.80729 1.33817 36214 ft 421 kts 108°
2026-05-08 21:44 51.79775 1.38222 37105 ft 417 kts 108°
2026-05-08 21:44 51.78811 1.42653 37991 ft 416 kts 109°
2026-05-08 21:44 51.77864 1.46999 38753 ft 415 kts 109°
2026-05-08 21:44 51.76909 1.51366 39503 ft 412 kts 109°
2026-05-08 21:45 51.75951 1.55742 40092 ft 413 kts 109°
2026-05-08 21:45 51.75002 1.60065 40494 ft 410 kts 109°
2026-05-08 21:45 51.74056 1.64371 40829 ft 407 kts 109°
2026-05-08 21:45 51.73096 1.68726 40964 ft 410 kts 110°
2026-05-08 21:46 51.71175 1.77414 40943 ft 410 kts 110°
2026-05-08 21:46 51.69273 1.85981 40939 ft 407 kts 110°
2026-05-08 21:47 51.67370 1.94519 40988 ft 407 kts 110°
2026-05-08 21:47 51.65454 2.03082 41010 ft 407 kts 110°
2026-05-08 21:48 51.64476 2.07435 40979 ft 420 kts 110°
2026-05-08 21:48 51.63468 2.11918 41015 ft 433 kts 110°
2026-05-08 21:48 51.62427 2.16529 41009 ft 446 kts 110°
2026-05-08 21:48 51.61360 2.21248 40984 ft 459 kts 110°
2026-05-08 21:49 51.60252 2.26134 40980 ft 470 kts 110°
2026-05-08 21:49 51.59106 2.31181 40995 ft 481 kts 110°
2026-05-08 21:49 51.56764 2.41453 40997 ft 501 kts 110°
2026-05-08 21:50 51.54324 2.52100 40990 ft 519 kts 110°
2026-05-08 21:50 51.53057 2.57616 41104 ft 526 kts 110°
2026-05-08 21:50 51.51786 2.63132 41122 ft 535 kts 110°
2026-05-08 21:51 51.49195 2.74335 41125 ft 548 kts 111°
2026-05-08 21:51 51.46518 2.85846 41129 ft 553 kts 110°
2026-05-08 21:52 51.43823 2.97372 41111 ft 555 kts 110°
2026-05-08 21:52 51.41512 3.07209 41124 ft 556 kts 110°